Location: Zagreb
(45.8000°N, 16.0000°E)
Time: 15:25:53
(UTC+02:00)

Transit 2A - Pass Details

Date: 15 August 2022
Orbit: 601 x 956 km, 66.7° (Epoch: 25 September)

Event Time Altitude Azimuth Distance (km) Brightness Sun altitude
Rises 13:29:50 0° 261° (W) 3,050 9.3 57.6°
Reaches altitude 10° 13:33:03 10° 283° (WNW) 2,075 8.4 57.4°
Maximum altitude 13:35:57 16° 322° (NW) 1,657 7.8 57.3°
Drops below altitude 10° 13:38:46 10° 1° (N) 1,995 8.0 57.2°
Sets 13:41:47 0° 24° (NNE) 2,876 8.7 57.0°
